Language: 


Des rapports , des résumés tant et plus, au choix de chacun....


Données statistiques de la station
Quotidien Rapport Juillet 2, 2017 Unités:  Anglais    Métrique   les deux
« Précédent Jour
Suivant Jour »
Quotidien Hebdomadaire Mensuel Annuel Actuel
  Haut: Bas: Moyen:
Température: 74.8 °F 52.5 °F 64.6 °F
Pt de rosée: 64.4 °F 48.2 °F 56.7 °F
Humidité: 95 % 43 % 77 %
Vitesse du vent: 13.2 mph 0 mph 4.3 mph
Rafales: 13.2 mph - -
Vent:- - West
Pression: 30.2 in 30 in -
Précipitation: 0.01 in    
Historical Graphs
 
 
Données statistiques pour Juillet 2, 2017
Heure Température Point de rosée Pression Vent Vitesse du vent Refales Humidité Pluie (taux horaire)
00:04 63.3 °F 55.4 °F 30.1 in West 9.8 mph 9.8 mph 75 % 0 in
00:09 63.3 °F 55.4 °F 30.1 in SW 13.2 mph 13.2 mph 74 % 0 in
00:14 63.1 °F 55.4 °F 30.1 in WSW 7.8 mph 13.2 mph 75 % 0 in
00:19 63.1 °F 55.4 °F 30.1 in West 6.3 mph 10.5 mph 75 % 0 in
00:24 63 °F 55.4 °F 30.1 in WSW 6 mph 10.5 mph 76 % 0 in
00:29 63 °F 55.4 °F 30.1 in WSW 7.6 mph 12.1 mph 77 % 0 in
00:34 63 °F 55.4 °F 30.1 in WSW 9.8 mph 12.1 mph 78 % 0 in
00:35 63 °F 55.4 °F 30.1 in West 6 mph 12.1 mph 78 % 0 in
00:40 62.8 °F 55.4 °F 30.1 in WSW 7.4 mph 11 mph 79 % 0 in
00:45 62.8 °F 55.4 °F 30.1 in SSW 7.6 mph 12.8 mph 79 % 0 in
00:50 62.6 °F 57.2 °F 30.1 in WSW 5.8 mph 12.8 mph 80 % 0 in
00:55 62.6 °F 57.2 °F 30.1 in West 5.6 mph 12.8 mph 80 % 0 in
01:00 62.6 °F 57.2 °F 30.1 in WSW 4.3 mph 12.8 mph 80 % 0 in
01:05 62.6 °F 57.2 °F 30.1 in WSW 5.6 mph 9.4 mph 80 % 0 in
01:10 62.4 °F 57.2 °F 30.1 in WSW 5.8 mph 10.7 mph 81 % 0 in
01:15 62.4 °F 57.2 °F 30.1 in WSW 7.8 mph 11 mph 82 % 0 in
01:20 62.4 °F 57.2 °F 30.1 in WSW 7.8 mph 11 mph 82 % 0 in
01:25 62.2 °F 57.2 °F 30.1 in WSW 4.9 mph 9.6 mph 82 % 0 in
01:26 62.2 °F 57.2 °F 30.1 in WSW 4.9 mph 9.6 mph 82 % 0 in
01:31 62.2 °F 57.2 °F 30.1 in SW 6.3 mph 9.6 mph 82 % 0 in
01:36 62.1 °F 57.2 °F 30.1 in West 6 mph 7.6 mph 82 % 0 in
01:41 62.1 °F 57.2 °F 30.1 in WSW 4 mph 7.4 mph 83 % 0 in
01:46 61.9 °F 57.2 °F 30.1 in WSW 4.9 mph 7.6 mph 83 % 0 in
01:51 61.7 °F 57.2 °F 30.1 in West 7.4 mph 8.1 mph 84 % 0 in
01:56 61.7 °F 57.2 °F 30.1 in WSW 6.9 mph 8.1 mph 84 % 0 in
02:01 61.7 °F 57.2 °F 30.1 in West 6 mph 8.5 mph 84 % 0 in
02:06 61.5 °F 57.2 °F 30.1 in West 4.3 mph 8.5 mph 85 % 0 in
02:11 61.3 °F 57.2 °F 30.1 in WSW 8.1 mph 8.5 mph 85 % 0 in
02:16 61.2 °F 57.2 °F 30.1 in WSW 6.5 mph 8.9 mph 85 % 0 in
02:21 61 °F 57.2 °F 30.1 in WSW 8.5 mph 10.3 mph 85 % 0 in
02:26 60.6 °F 57.2 °F 30.1 in West 4.7 mph 10.7 mph 85 % 0 in
02:32 60.4 °F 55.4 °F 30.1 in WSW 7.8 mph 10.7 mph 86 % 0 in
02:37 60.1 °F 55.4 °F 30.1 in WSW 8.5 mph 8.9 mph 86 % 0 in
02:42 59.9 °F 57.2 °F 30.1 in WSW 6.3 mph 10.1 mph 87 % 0 in
02:47 59.7 °F 55.4 °F 30.1 in West 5.8 mph 11 mph 87 % 0 in
02:52 59.5 °F 55.4 °F 30.1 in WSW 5.6 mph 11 mph 88 % 0 in
02:53 59.5 °F 55.4 °F 30.1 in WSW 6.3 mph 11 mph 88 % 0 in
02:58 59.4 °F 55.4 °F 30.1 in WSW 6 mph 8.5 mph 88 % 0 in
03:03 59.2 °F 55.4 °F 30.1 in SW 6.3 mph 8.1 mph 89 % 0 in
03:08 58.8 °F 55.4 °F 30.1 in WSW 8.1 mph 8.1 mph 89 % 0 in
03:13 58.8 °F 55.4 °F 30.1 in West 7.2 mph 8.1 mph 90 % 0 in
03:18 58.6 °F 55.4 °F 30.1 in WSW 6.3 mph 8.7 mph 91 % 0 in
03:23 58.6 °F 55.4 °F 30.1 in WSW 5.4 mph 10.1 mph 91 % 0 in
03:28 58.6 °F 55.4 °F 30.1 in WSW 8.9 mph 10.5 mph 92 % 0 in
03:33 58.6 °F 55.4 °F 30.1 in WSW 8.7 mph 10.5 mph 92 % 0 in
03:38 58.5 °F 55.4 °F 30.1 in WSW 6.5 mph 9.8 mph 92 % 0 in
03:44 58.5 °F 55.4 °F 30.1 in WSW 7.8 mph 8.7 mph 92 % 0 in
03:49 58.5 °F 57.2 °F 30.1 in West 6.3 mph 9.4 mph 93 % 0 in
03:54 58.3 °F 57.2 °F 30.1 in WSW 6.9 mph 9.4 mph 93 % 0 in
03:59 58.3 °F 57.2 °F 30.1 in West 8.1 mph 9.6 mph 93 % 0 in
04:04 58.3 °F 57.2 °F 30 in West 6.5 mph 9.6 mph 93 % 0 in
04:09 58.3 °F 57.2 °F 30 in West 6.3 mph 8.7 mph 93 % 0 in
04:14 58.3 °F 57.2 °F 30 in WSW 5.6 mph 8.9 mph 93 % 0 in
04:19 58.3 °F 57.2 °F 30.1 in WSW 6.3 mph 8.9 mph 93 % 0 in
04:24 58.5 °F 57.2 °F 30.1 in West 5.4 mph 9.8 mph 94 % 0 in
04:29 58.6 °F 57.2 °F 30.1 in WSW 5.8 mph 9.8 mph 94 % 0 in
04:34 58.8 °F 57.2 °F 30 in WSW 8.5 mph 9.8 mph 94 % 0 in
04:39 58.8 °F 57.2 °F 30 in SW 6 mph 9.8 mph 94 % 0 in
04:44 59 °F 57.2 °F 30 in WSW 9.6 mph 9.6 mph 93 % 0 in
04:49 59 °F 57.2 °F 30 in West 7.2 mph 9.6 mph 93 % 0 in
04:54 59.2 °F 57.2 °F 30 in SW 5.8 mph 7.8 mph 93 % 0 in
04:59 59.2 °F 57.2 °F 30 in West 4 mph 8.7 mph 93 % 0 in
05:04 59.4 °F 57.2 °F 30 in WSW 7.6 mph 8.7 mph 93 % 0 in
05:09 59.5 °F 57.2 °F 30 in WSW 10.7 mph 10.7 mph 93 % 0 in
05:14 59.7 °F 57.2 °F 30 in WSW 4 mph 10.7 mph 93 % 0 in
05:19 59.7 °F 57.2 °F 30 in WSW 6.3 mph 10.7 mph 93 % 0 in
05:24 59.7 °F 57.2 °F 30 in SW 5.8 mph 8.5 mph 93 % 0 in
05:29 59.7 °F 57.2 °F 30 in WSW 6.3 mph 8.5 mph 93 % 0 in
05:34 59.9 °F 59 °F 30 in WSW 3.4 mph 8.1 mph 94 % 0 in
05:40 59.9 °F 59 °F 30 in WSW 6.3 mph 9.6 mph 94 % 0 in
05:45 59.9 °F 59 °F 30 in WSW 6.7 mph 9.6 mph 94 % 0 in
05:50 59.9 °F 59 °F 30 in WSW 3.8 mph 8.7 mph 94 % 0 in
05:55 59.9 °F 59 °F 30 in Calm   6.7 mph 94 % 0 in
06:00 59.9 °F 59 °F 30 in WSW 6 mph 7.4 mph 94 % 0 in
06:05 59.9 °F 59 °F 30 in WSW 3.6 mph 7.4 mph 94 % 0 in
06:10 59.9 °F 59 °F 30 in WSW 4.9 mph 6.9 mph 94 % 0 in
06:15 60.1 °F 59 °F 30 in SSW 2.5 mph 6.9 mph 95 % 0 in
06:20 60.1 °F 59 °F 30 in WSW 3.6 mph 6.3 mph 95 % 0 in
06:25 60.1 °F 59 °F 30 in West 3.6 mph 6.5 mph 95 % 0 in
06:30 60.1 °F 59 °F 30 in WSW 4 mph 6.5 mph 95 % 0 in
06:35 60.3 °F 59 °F 30 in SW 3.8 mph 6.3 mph 95 % 0 in
06:40 60.4 °F 59 °F 30 in WSW 4 mph 6.3 mph 95 % 0 in
06:45 60.6 °F 59 °F 30 in WSW 4.9 mph 6 mph 95 % 0 in
06:50 60.8 °F 59 °F 30.1 in SW 2.9 mph 6.5 mph 94 % 0 in
06:55 61 °F 59 °F 30.1 in SW 2.7 mph 6.5 mph 94 % 0 in
07:00 61.2 °F 59 °F 30.1 in WSW 4.3 mph 7.2 mph 94 % 0 in
07:02 61.2 °F 59 °F 30 in SW 5.6 mph 7.2 mph 94 % 0 in
07:07 61.3 °F 59 °F 30 in WSW 4.9 mph 7.8 mph 94 % 0 in
07:12 61.3 °F 59 °F 30 in WSW 5.6 mph 8.7 mph 94 % 0 in
07:17 61.3 °F 59 °F 30.1 in West 3.1 mph 8.7 mph 94 % 0 in
07:18 61.3 °F 59 °F 30.1 in WSW 5.4 mph 8.7 mph 94 % 0 in
07:23 61.5 °F 59 °F 30.1 in West 4.3 mph 8.7 mph 94 % 0 in
07:28 61.5 °F 59 °F 30.1 in WSW 7.2 mph 7.6 mph 94 % 0 in
07:33 61.5 °F 59 °F 30.1 in WSW 5.8 mph 7.6 mph 94 % 0 in
07:38 61.7 °F 60.8 °F 30.1 in WSW 4.9 mph 7.2 mph 94 % 0 in
07:43 61.7 °F 60.8 °F 30.1 in SW 3.4 mph 6.5 mph 94 % 0 in
07:48 61.9 °F 60.8 °F 30.1 in West 6.3 mph 7.8 mph 94 % 0 in
07:53 62.1 °F 60.8 °F 30.1 in West 4.3 mph 7.8 mph 93 % 0 in
07:58 62.1 °F 60.8 °F 30.1 in West 3.8 mph 7.6 mph 93 % 0 in
08:03 62.2 °F 60.8 °F 30.1 in WSW 6.3 mph 8.7 mph 93 % 0 in
08:08 62.2 °F 60.8 °F 30.1 in WSW 6.5 mph 8.7 mph 93 % 0 in
08:13 62.4 °F 60.8 °F 30.1 in West 5.8 mph 10.1 mph 93 % 0 in
08:18 62.4 °F 60.8 °F 30.1 in West 3.6 mph 10.1 mph 93 % 0 in
08:23 62.6 °F 60.8 °F 30.1 in WSW 6 mph 7.6 mph 92 % 0 in
08:28 62.8 °F 60.8 °F 30.1 in WSW 3.8 mph 7.2 mph 92 % 0 in
08:33 63 °F 60.8 °F 30.1 in West 4.9 mph 8.1 mph 92 % 0 in
08:38 63.1 °F 60.8 °F 30.1 in West 8.5 mph 8.5 mph 92 % 0 in
08:43 63.1 °F 60.8 °F 30.1 in WSW 6.5 mph 8.5 mph 91 % 0 in
08:48 63.5 °F 60.8 °F 30.1 in West 8.7 mph 8.7 mph 91 % 0 in
08:53 63.7 °F 60.8 °F 30.1 in WNW 6 mph 8.7 mph 90 % 0 in
08:58 63.7 °F 60.8 °F 30.1 in West 5.6 mph 10.7 mph 89 % 0 in
09:03 63.9 °F 60.8 °F 30.1 in West 7.4 mph 10.7 mph 89 % 0 in
09:08 64 °F 60.8 °F 30.1 in WSW 7.2 mph 7.8 mph 89 % 0 in
09:13 63.9 °F 60.8 °F 30.1 in West 4.7 mph 8.1 mph 87 % 0 in
09:18 63.9 °F 60.8 °F 30.1 in WNW 5.6 mph 8.1 mph 87 % 0 in
09:23 63.9 °F 60.8 °F 30.1 in West 7.8 mph 8.7 mph 87 % 0 in
09:28 64.2 °F 60.8 °F 30.1 in West 2.7 mph 8.7 mph 87 % 0 in
09:33 64.2 °F 60.8 °F 30.1 in West 9.6 mph 9.6 mph 87 % 0 in
09:38 64.4 °F 60.8 °F 30.1 in West 4.7 mph 9.6 mph 86 % 0 in
09:43 64.6 °F 60.8 °F 30.1 in NW 3.8 mph 9.4 mph 85 % 0 in
09:48 64.4 °F 60.8 °F 30.1 in NW 3.1 mph 9.4 mph 85 % 0 in
09:53 64.4 °F 60.8 °F 30.1 in NW 2.9 mph 7.2 mph 85 % 0 in
09:58 64.2 °F 60.8 °F 30.1 in WSW 4 mph 6.5 mph 85 % 0 in
10:04 64.2 °F 60.8 °F 30.1 in Calm   6.5 mph 85 % 0 in
10:09 64.4 °F 60.8 °F 30.1 in WNW 2.9 mph 6.3 mph 85 % 0 in
10:14 64.2 °F 60.8 °F 30.1 in Calm   6.3 mph 85 % 0 in
10:19 64.4 °F 60.8 °F 30.1 in NW 3.6 mph 6.3 mph 85 % 0 in
10:24 64.2 °F 60.8 °F 30.1 in North 2.9 mph 6 mph 86 % 0 in
10:29 64 °F 59 °F 30.1 in West 5.4 mph 6 mph 86 % 0 in
10:34 63.9 °F 60.8 °F 30.1 in West 4.9 mph 6.3 mph 87 % 0 in
10:39 63.9 °F 60.8 °F 30.1 in WNW 4.7 mph 6.3 mph 87 % 0 in
10:44 63.9 °F 60.8 °F 30.1 in WNW 2.5 mph 5.8 mph 88 % 0 in
10:49 64 °F 60.8 °F 30.1 in West 2.2 mph 6 mph 88 % 0 in
10:54 64 °F 60.8 °F 30.1 in Calm   6 mph 88 % 0 in
10:59 63.9 °F 60.8 °F 30.1 in WNW 5.6 mph 6.9 mph 88 % 0 in
11:05 64 °F 60.8 °F 30.1 in WSW 5.8 mph 6.9 mph 89 % 0 in
11:10 64.2 °F 60.8 °F 30.1 in West 4.7 mph 5.8 mph 89 % 0 in
11:15 64.8 °F 62.6 °F 30.1 in NNW 2.5 mph 5.6 mph 90 % 0 in
11:20 65.1 °F 62.6 °F 30.1 in Calm   7.2 mph 91 % 0 in
11:25 65.1 °F 62.6 °F 30.1 in Calm   7.2 mph 90 % 0 in
11:30 65.1 °F 62.6 °F 30.1 in NW 4.7 mph 6 mph 90 % 0 in
11:35 64.9 °F 62.6 °F 30.1 in West 4.9 mph 8.1 mph 90 % 0 in
11:40 64.6 °F 60.8 °F 30.1 in NNW 10.7 mph 10.7 mph 90 % 0 in
11:41 64.4 °F 60.8 °F 30.1 in NNW 6.5 mph 10.7 mph 90 % 0 in
11:46 64.4 °F 60.8 °F 30.1 in Calm   10.7 mph 90 % 0 in
11:51 64.8 °F 62.6 °F 30.1 in WSW 2 mph 7.4 mph 90 % 0 in
11:56 65.5 °F 62.6 °F 30.1 in West 3.4 mph 7.6 mph 91 % 0 in
12:01 65.5 °F 62.6 °F 30.1 in West 2.7 mph 7.6 mph 90 % 0 in
12:07 65.7 °F 62.6 °F 30.1 in West 4.9 mph 7.2 mph 91 % 0 in
12:12 65.8 °F 62.6 °F 30.1 in West 5.6 mph 7.2 mph 90 % 0 in
12:17 65.5 °F 62.6 °F 30.1 in NNW 3.1 mph 6.3 mph 90 % 0 in
12:22 64.8 °F 62.6 °F 30.1 in NW 4.3 mph 7.4 mph 90 % 0 in
12:27 64.2 °F 62.6 °F 30.1 in North 5.4 mph 7.4 mph 91 % 0 in
12:32 64.2 °F 62.6 °F 30.1 in NNW 7.4 mph 9.8 mph 92 % 0.01 in
12:42 63.5 °F 60.8 °F 30.1 in WNW 6.3 mph 11 mph 91 % 0.01 in
12:47 64.2 °F 62.6 °F 30.1 in NE 4 mph 8.7 mph 91 % 0.01 in
12:48 64.4 °F 62.6 °F 30.1 in North 3.6 mph 8.7 mph 91 % 0.01 in
12:53 65.1 °F 62.6 °F 30.1 in North 2.2 mph 8.7 mph 91 % 0.01 in
12:58 66 °F 64.4 °F 30.1 in NW 5.6 mph 6 mph 91 % 0.01 in
13:03 67.1 °F 64.4 °F 30.1 in West 2.5 mph 6.5 mph 90 % 0.01 in
13:08 67.6 °F 64.4 °F 30.1 in Calm   7.2 mph 89 % 0.01 in
13:13 67.3 °F 64.4 °F 30.1 in NNW 5.6 mph 7.2 mph 87 % 0.01 in
13:18 67.6 °F 64.4 °F 30.1 in North 2.7 mph 6.5 mph 87 % 0.01 in
13:23 68.4 °F 64.4 °F 30.1 in NNE 6.3 mph 6.3 mph 86 % 0.01 in
13:28 67.5 °F 62.6 °F 30.1 in WNW 3.1 mph 7.6 mph 85 % 0 in
13:33 67.6 °F 62.6 °F 30.1 in NW 3.6 mph 7.6 mph 86 % 0 in
13:38 67.5 °F 62.6 °F 30.1 in NNW 5.4 mph 7.8 mph 86 % 0 in
13:43 66.4 °F 60.8 °F 30.1 in North 3.1 mph 11 mph 84 % 0 in
13:48 66.4 °F 62.6 °F 30.2 in Calm   11 mph 86 % 0 in
13:53 66 °F 62.6 °F 30.2 in North 6.3 mph 7.4 mph 86 % 0 in
13:58 65.8 °F 60.8 °F 30.2 in NNE 3.8 mph 7.4 mph 86 % 0 in
14:03 65.7 °F 62.6 °F 30.2 in NNW 5.8 mph 7.4 mph 87 % 0 in
14:08 65.3 °F 60.8 °F 30.2 in NNW 5.4 mph 10.5 mph 86 % 0 in
14:13 65.7 °F 62.6 °F 30.2 in NNW 3.6 mph 10.5 mph 87 % 0 in
14:19 65.8 °F 60.8 °F 30.2 in WNW 3.6 mph 8.5 mph 86 % 0 in
14:20 65.8 °F 60.8 °F 30.2 in NE 4.9 mph 8.5 mph 86 % 0 in
14:24 66.2 °F 62.6 °F 30.2 in North 5.6 mph 8.5 mph 86 % 0 in
14:29 66.4 °F 62.6 °F 30.2 in NNW 1.1 mph 7.6 mph 86 % 0 in
14:34 67.1 °F 62.6 °F 30.2 in NNE 4 mph 7.6 mph 85 % 0 in
14:39 69.4 °F 64.4 °F 30.2 in North 5.6 mph 6.3 mph 84 % 0 in
14:44 69.3 °F 62.6 °F 30.2 in North 4.7 mph 7.2 mph 79 % 0 in
14:49 69.3 °F 62.6 °F 30.2 in NNW 2.9 mph 7.2 mph 78 % 0 in
14:54 68.9 °F 60.8 °F 30.2 in North 4.5 mph 8.5 mph 76 % 0 in
14:59 69.1 °F 60.8 °F 30.2 in WNW 6.3 mph 8.5 mph 76 % 0 in
15:04 70.2 °F 62.6 °F 30.2 in WNW 5.8 mph 6.5 mph 74 % 0 in
15:09 69.4 °F 59 °F 30.2 in North 5.4 mph 8.7 mph 71 % 0 in
15:14 69.6 °F 60.8 °F 30.2 in North 6 mph 8.7 mph 72 % 0 in
15:19 69.8 °F 60.8 °F 30.2 in West 7.2 mph 8.7 mph 71 % 0 in
15:20 69.8 °F 60.8 °F 30.2 in NNW 7.2 mph 8.7 mph 71 % 0 in
15:25 70.9 °F 60.8 °F 30.2 in WNW 3.6 mph 8.1 mph 69 % 0 in
15:30 70.5 °F 59 °F 30.2 in North 5.8 mph 8.1 mph 69 % 0 in
15:35 70 °F 59 °F 30.1 in North 1.1 mph 6.9 mph 69 % 0 in
15:40 70.7 °F 60.8 °F 30.1 in NW 5.8 mph 7.4 mph 68 % 0 in
15:45 70.3 °F 59 °F 30.1 in West 3.8 mph 7.4 mph 69 % 0 in
15:50 70 °F 59 °F 30.2 in Calm   6.5 mph 67 % 0 in
15:55 70.2 °F 59 °F 30.2 in North 4 mph 7.8 mph 67 % 0 in
15:58 70.9 °F 59 °F 30.2 in NNE 4 mph 7.8 mph 67 % 0 in
16:03 72 °F 59 °F 30.2 in North 5.4 mph 8.5 mph 62 % 0 in
16:08 71.2 °F 57.2 °F 30.2 in North 6 mph 9.2 mph 62 % 0 in
16:13 71.1 °F 57.2 °F 30.2 in NNW 1.6 mph 9.2 mph 62 % 0 in
16:18 70.2 °F 55.4 °F 30.2 in NW 2.7 mph 8.7 mph 61 % 0 in
16:23 70.9 °F 57.2 °F 30.2 in North 2.9 mph 8.7 mph 63 % 0 in
16:28 72 °F 57.2 °F 30.2 in NNW 6 mph 8.5 mph 60 % 0 in
16:33 71.4 °F 57.2 °F 30.2 in NNE 3.8 mph 8.5 mph 61 % 0 in
16:38 71.6 °F 57.2 °F 30.2 in East 3.8 mph 7.8 mph 59 % 0 in
16:43 72.1 °F 57.2 °F 30.2 in North 5.6 mph 7.6 mph 59 % 0 in
16:48 72.1 °F 57.2 °F 30.2 in North 4 mph 10.1 mph 59 % 0 in
16:53 72.5 °F 57.2 °F 30.2 in NNE 5.6 mph 10.1 mph 58 % 0 in
16:58 73.4 °F 57.2 °F 30.2 in North 8.5 mph 10.3 mph 58 % 0 in
17:03 73.9 °F 57.2 °F 30.2 in NW 2.7 mph 10.3 mph 54 % 0 in
17:08 73.9 °F 55.4 °F 30.2 in North 5.4 mph 9.8 mph 53 % 0 in
17:13 73.8 °F 55.4 °F 30.2 in NNW 2.5 mph 9.8 mph 53 % 0 in
17:18 73.6 °F 53.6 °F 30.2 in NNW 12.3 mph 12.3 mph 49 % 0 in
17:23 73.6 °F 51.8 °F 30.2 in NW 4 mph 12.3 mph 47 % 0 in
17:28 74.1 °F 55.4 °F 30.2 in Calm   8.5 mph 50 % 0 in
17:33 74.5 °F 55.4 °F 30.2 in WNW 2.5 mph 7.6 mph 50 % 0 in
17:38 74.5 °F 53.6 °F 30.2 in NNW 5.4 mph 8.7 mph 46 % 0 in
17:42 74.8 °F 53.6 °F 30.2 in NW 7.4 mph 8.7 mph 47 % 0 in
17:47 74.3 °F 53.6 °F 30.2 in SSW 6 mph 7.6 mph 46 % 0 in
17:52 74.7 °F 53.6 °F 30.2 in NNW 4.5 mph 7.6 mph 47 % 0 in
17:57 74.3 °F 51.8 °F 30.2 in North 2.9 mph 8.1 mph 45 % 0 in
18:02 74.5 °F 51.8 °F 30.2 in NW 3.8 mph 8.1 mph 45 % 0 in
18:07 74.5 °F 53.6 °F 30.2 in NNW 4 mph 8.1 mph 46 % 0 in
18:12 74.3 °F 51.8 °F 30.2 in NW 4.7 mph 7.8 mph 45 % 0 in
18:17 73.6 °F 50 °F 30.2 in North 4.3 mph 8.7 mph 44 % 0 in
18:23 73.8 °F 51.8 °F 30.2 in NNE 5.6 mph 9.8 mph 46 % 0 in
18:28 73.4 °F 50 °F 30.2 in North 2 mph 9.8 mph 44 % 0 in
18:33 73.8 °F 51.8 °F 30.2 in North 1.6 mph 8.7 mph 45 % 0 in
18:38 73.8 °F 50 °F 30.2 in North 5.8 mph 8.5 mph 43 % 0 in
18:43 73.4 °F 50 °F 30.2 in North 3.1 mph 8.7 mph 43 % 0 in
18:48 73.2 °F 50 °F 30.2 in North 2.9 mph 10.7 mph 44 % 0 in
18:53 73.6 °F 50 °F 30.2 in NNW 2.9 mph 10.7 mph 44 % 0 in
18:58 73.4 °F 50 °F 30.2 in North 6.7 mph 7.2 mph 44 % 0 in
19:03 73 °F 50 °F 30.2 in NW 3.6 mph 7.8 mph 44 % 0 in
19:08 72.5 °F 50 °F 30.2 in NNW 6 mph 7.8 mph 44 % 0 in
19:13 72.3 °F 50 °F 30.2 in North 6.7 mph 7.8 mph 45 % 0 in
19:18 72.3 °F 50 °F 30.2 in NW 3.1 mph 7.4 mph 44 % 0 in
19:23 72.9 °F 50 °F 30.2 in NNW 2.9 mph 7.4 mph 44 % 0 in
19:28 72.7 °F 50 °F 30.2 in WNW 5.8 mph 7.2 mph 44 % 0 in
19:33 72.1 °F 48.2 °F 30.2 in NNW 3.8 mph 8.1 mph 43 % 0 in
19:38 72 °F 48.2 °F 30.2 in NNE 3.8 mph 8.1 mph 43 % 0 in
19:43 71.8 °F 48.2 °F 30.2 in NNE 3.8 mph 6.3 mph 44 % 0 in
19:48 71.6 °F 48.2 °F 30.2 in North 3.6 mph 6 mph 44 % 0 in
19:53 71.4 °F 50 °F 30.2 in NNE 0.9 mph 5.4 mph 46 % 0 in
19:58 71.4 °F 50 °F 30.2 in North 3.8 mph 4.9 mph 46 % 0 in
20:03 71.2 °F 48.2 °F 30.2 in West 3.4 mph 5.8 mph 45 % 0 in
20:08 70.5 °F 48.2 °F 30.2 in North 5.6 mph 6.3 mph 46 % 0 in
20:14 70.7 °F 50 °F 30.2 in NNW 1.3 mph 6.3 mph 47 % 0 in
20:19 70.5 °F 50 °F 30.2 in NNE 0.9 mph 4.9 mph 47 % 0 in
20:24 70.3 °F 50 °F 30.2 in Calm   4.9 mph 48 % 0 in
20:29 69.8 °F 48.2 °F 30.2 in NNW 2.9 mph 4.9 mph 47 % 0 in
20:34 69.1 °F 48.2 °F 30.2 in NNE 2 mph 4.9 mph 48 % 0 in
20:35 69.1 °F 48.2 °F 30.2 in NNW 2.7 mph 4.9 mph 48 % 0 in
20:40 68.2 °F 48.2 °F 30.2 in North 3.1 mph 4.5 mph 49 % 0 in
20:45 67.8 °F 50 °F 30.2 in Calm   4.5 mph 51 % 0 in
20:50 67.6 °F 48.2 °F 30.2 in NNW 2.2 mph 4.5 mph 51 % 0 in
20:55 67.1 °F 48.2 °F 30.2 in NW 3.1 mph 4.9 mph 51 % 0 in
21:00 66.6 °F 48.2 °F 30.2 in Calm   4.9 mph 52 % 0 in
21:05 66 °F 50 °F 30.2 in NNE 2.2 mph 4 mph 54 % 0 in
21:10 65.5 °F 48.2 °F 30.2 in Calm   2.2 mph 55 % 0 in
21:15 65.1 °F 48.2 °F 30.2 in North 1.6 mph 3.6 mph 56 % 0 in
21:20 64.6 °F 48.2 °F 30.2 in Calm   3.8 mph 57 % 0 in
21:25 64.2 °F 50 °F 30.2 in Calm   3.8 mph 59 % 0 in
21:30 63.9 °F 50 °F 30.2 in North 2 mph 2.5 mph 60 % 0 in
21:35 63.1 °F 50 °F 30.2 in Calm   2.2 mph 61 % 0 in
21:40 62.8 °F 50 °F 30.2 in Calm   2.2 mph 63 % 0 in
21:45 62.2 °F 50 °F 30.2 in Calm     64 % 0 in
21:50 61.9 °F 50 °F 30.2 in Calm     66 % 0 in
21:55 61.3 °F 50 °F 30.2 in Calm     66 % 0 in
22:00 61 °F 50 °F 30.2 in Calm     67 % 0 in
22:05 60.6 °F 50 °F 30.2 in Calm   2 mph 68 % 0 in
22:11 60.4 °F 50 °F 30.2 in North 2.9 mph 2.9 mph 69 % 0 in
22:16 60.1 °F 51.8 °F 30.2 in NE 2.9 mph 4.7 mph 71 % 0 in
22:21 59.9 °F 51.8 °F 30.2 in NE 3.1 mph 4.7 mph 71 % 0 in
22:26 59.5 °F 51.8 °F 30.2 in Calm   4 mph 72 % 0 in
22:31 59 °F 50 °F 30.2 in Calm   4 mph 72 % 0 in
22:36 58.3 °F 50 °F 30.2 in Calm   4 mph 74 % 0 in
22:41 57.9 °F 50 °F 30.2 in Calm     74 % 0 in
22:46 57.2 °F 50 °F 30.2 in Calm   2.2 mph 74 % 0 in
22:51 56.7 °F 50 °F 30.2 in Calm   2.2 mph 75 % 0 in
23:01 55.8 °F 50 °F 30.2 in Calm     77 % 0 in
23:06 55.2 °F 50 °F 30.2 in Calm     79 % 0 in
23:11 54.9 °F 48.2 °F 30.2 in Calm     79 % 0 in
23:16 54.5 °F 50 °F 30.2 in Calm     80 % 0 in
23:21 54.5 °F 50 °F 30.2 in Calm     81 % 0 in
23:26 54 °F 48.2 °F 30.2 in Calm     82 % 0 in
23:31 53.8 °F 48.2 °F 30.2 in Calm     82 % 0 in
23:36 53.4 °F 48.2 °F 30.2 in Calm     83 % 0 in
23:41 53.2 °F 48.2 °F 30.2 in Calm   2.7 mph 84 % 0 in
23:47 53.1 °F 48.2 °F 30.2 in Calm   2.7 mph 84 % 0 in
23:52 52.7 °F 48.2 °F 30.2 in Calm   1.6 mph 84 % 0 in
23:57 52.5 °F 48.2 °F 30.2 in Calm     85 % 0 in
Le Gheer Warneton
Courtoisie de Weather Underground - 2.25 mb

Mise a jour : 17-12-17 03:15:13
Généré par Cumulus 1.9.4 (1099)